DW7214 Weather Reports


time (UTC)temp
F
wind
direction
speed
knots
gust
knots
rain 1hr
in
rain 24hr
in
rain mn
in
humidity
%
barometer
mb
20260903060005 56 99 0.0 3.5 0.00 0.54 0.54 92 1010.4
20260903054512 55 121 0.0 1.7 0.00 0.54 0.54 91 1010.6
20260903053018 55 126 0.0 1.7 0.00 0.54 0.54 91 1010.6
20260903051526 55 103 0.0 1.7 0.00 0.54 0.54 91 1010.5
20260903050035 55 108 0.0 0.0 0.00 0.54 0.54 92 1010.5
20260903044509 54 108 0.0 1.7 0.00 0.54 0.54 92 1010.5
20260903043015 54 123 0.0 0.0 0.00 0.54 0.54 91 1010.2
20260903041517 54 116 0.0 0.0 0.00 0.54 0.54 89 1010.2
20260903040030 55 119 0.0 0.9 0.00 0.54 0.54 88 1010.1
20260903034530 55 149 0.0 2.6 0.00 0.54 0.54 89 1009.9
20260903033013 55 203 1.7 2.6 0.00 0.54 0.54 89 1009.7
20260903031518 56 119 0.0 0.0 0.00 0.54 0.54 86 1009.3
20260903030029 57 177 0.0 1.7 0.00 0.54 0.54 84 1009.3
20260903024531 58 186 0.0 1.7 0.00 0.54 0.54 82 1009.1
20260903023036 59 186 0.0 7.0 0.00 0.54 0.54 80 1009.1
20260903021513 60 181 0.0 1.7 0.00 0.54 0.54 79 1008.9
20260903020034 60 157 0.9 5.2 0.00 0.54 0.54 78 1008.7
20260903014527 61 157 0.0 7.0 0.00 0.54 0.54 80 1008.8
20260903013029 60 205 1.7 5.2 0.00 0.54 0.54 80 1008.6
20260903011514 61 135 2.6 7.0 0.00 0.54 0.54 79 1008.5
20260903010018 61 161 0.0 6.1 0.00 0.54 0.54 80 1008.5
20260903004525 61 138 0.0 6.1 0.00 0.54 0.54 81 1008.2
20260903003027 62 128 1.7 5.2 0.00 0.54 0.54 82 1008.2
20260903001534 62 136 0.9 3.5 0.00 0.54 0.54 83 1008.1
20260903000016 62 115 1.7 6.1 0.01 0.54 0.54 87 1008.0
20260902234523 61 97 0.9 4.3 0.01 0.54 0.54 88 1007.9
20260902233027 60 157 0.0 0.9 0.01 0.54 0.54 89 1007.9
20260902231532 59 141 0.0 5.2 0.01 0.54 0.54 88 1007.9
20260902230037 60 111 0.9 3.5 0.01 0.52 0.52 88 1007.9
20260902224519 60 96 0.9 4.3 0.01 0.52 0.52 90 1007.5
20260902223048 59 151 0.0 7.0 0.10 0.52 0.52 89 1007.3
20260902221531 59 134 1.7 7.8 0.13 0.52 0.52 91 1007.2
20260902220032 59 139 1.7 6.1 0.12 0.52 0.52 1007.1
20260902214516 58 180 1.7 7.8 0.12 0.52 0.52 1007.1
20260902213025 59 132 2.6 7.8 0.03 0.43 0.43 91 1006.8
20260902211526 59 189 1.7 9.6 0.00 0.40 0.40 91 1006.7
20260902210031 59 215 5.2 11.3 0.00 0.40 0.40 91 1006.7
20260902204544 58 202 1.7 11.3 0.00 0.40 0.40 92 1006.6
20260902203021 58 135 3.5 11.3 0.00 0.40 0.40 92 1006.5
20260902201528 58 321 0.9 7.8 0.01 0.40 0.40 92 1006.4
20260902200037 58 153 1.7 7.8 0.02 0.40 0.40 1006.4
20260902194531 57 138 0.0 5.2 0.02 0.40 0.40 92 1006.6
20260902193034 57 108 0.0 5.2 0.04 0.40 0.40 91 1006.5
20260902191527 57 148 0.9 5.2 0.11 0.39 0.39 90 1006.5
20260902190007 57 148 0.9 5.2 0.13 0.38 0.38 90 1006.5
20260902184510 57 29 1.7 7.0 0.13 0.38 0.38 91 1006.8
20260902183035 57 159 0.0 3.5 0.12 0.36 0.36 90 1007.1
20260902181523 58 266 0.9 7.0 0.08 0.28 0.28 90 1007.0
20260902180028 58 70 0.0 2.6 0.08 0.25 0.25 90 1006.9
20260902174513 58 90 0.0 3.5 0.10 0.25 0.25 91 1007.2
20260902173024 58 17 0.0 3.5 0.13 0.24 0.24 91 1007.4
20260902171519 58 170 0.0 2.6 0.13 0.20 0.20 91 1007.5
20260902170032 58 141 0.0 3.5 0.14 0.17 0.17 91 1007.5
20260902164503 58 105 0.0 0.0 0.14 0.15 0.15 90 1007.4
20260902163009 58 175 0.0 0.0 0.11 0.11 0.11 89 1007.4
20260902161516 58 160 0.0 0.0 0.07 0.07 0.07 89 1007.4
20260902160023 59 160 0.0 0.0 0.03 0.03 0.03 88 1007.4
20260902154527 59 209 0.0 1.7 0.01 0.01 0.01 87 1007.6
20260902153013 58 240 0.0 0.0 0.00 0.00 0.00 86 1007.6
20260902151518 59 211 0.0 0.0 0.00 0.00 0.00 85 1007.7
20260902150025 58 86 0.0 0.0 0.00 0.00 0.00 84 1007.8
20260902144527 58 86 0.0 0.0 0.00 0.00 0.00 85 1008.1
20260902143032 58 86 0.0 0.0 0.00 0.00 0.00 85 1008.2
20260902141513 57 86 0.0 0.0 0.00 0.00 0.00 84 1008.2
20260902140025 58 86 0.0 0.0 0.00 0.00 0.00 84 1008.3
20260902134526 58 86 0.0 0.0 0.00 0.00 0.00 83 1008.4
20260902133029 58 86 0.0 0.0 0.00 0.00 0.00 83 1008.5
20260902131528 58 86 0.0 0.0 0.00 0.00 0.00 83 1008.8
20260902130013 58 86 0.0 0.0 0.00 0.00 0.00 82 1008.9
20260902124513 58 93 0.0 0.0 0.00 0.00 0.00 82 1009.3
20260902123012 58 115 0.0 0.0 0.00 0.00 0.00 82 1009.6
20260902121507 58 146 0.0 0.0 0.00 0.00 0.00 82 1009.8
20260902120015 58 104 0.0 0.0 0.00 0.00 0.00 83 1009.9
20260902114516 59 49 0.0 1.7 0.00 0.00 0.00 82 1010.1
20260902113016 58 129 0.0 3.5 0.00 0.00 0.00 82 1010.4
20260902111507 58 33 0.0 1.7 0.00 0.00 0.00 83 1010.6
20260902110032 58 138 0.0 0.0 0.00 0.00 0.00 83 1010.7
20260902104532 58 173 0.0 0.0 0.00 0.00 0.00 84 1010.8
20260902103035 57 111 0.0 1.7 0.00 0.00 0.00 85 1010.9
20260902101519 57 229 0.0 0.0 0.00 0.00 0.00 86 1011.0
20260902100013 57 229 0.0 0.0 0.00 0.00 0.00 85 1011.0
20260902094519 58 200 0.0 0.0 0.00 0.00 0.00 84 1011.0
20260902093020 58 145 0.0 0.0 0.00 0.00 0.00 83 1011.2
20260902091518 58 119 0.0 1.7 0.00 0.00 0.00 83 1011.3
20260902090026 59 123 0.0 1.7 0.00 0.00 0.00 83 1011.4
20260902084515 58 119 0.0 1.7 0.00 0.00 0.00 84 1011.6
20260902083020 58 117 0.0 3.5 0.00 0.00 0.00 84 1011.7
20260902081525 58 127 0.9 1.7 0.00 0.00 0.00 84 1011.8
20260902080023 58 127 0.0 3.5 0.00 0.00 0.00 83 1011.9
20260902074524 59 138 0.0 0.0 0.00 0.00 0.00 82 1012.0
20260902073017 59 143 0.0 0.9 0.00 0.00 0.00 81 1012.1
20260902071524 60 154 0.0 3.5 0.00 0.00 0.00 80 1012.1
20260902070025 60 121 0.0 1.7 0.00 0.00 0.00 79 1012.1
20260902064525 61 116 0.0 4.3 0.00 0.00 0.00 78 1012.2
20260902063037 61 111 0.0 5.2 0.00 0.00 0.00 77 1012.4
20260902061531 61 116 0.9 3.5 0.00 0.00 0.00 76 1012.4